Details for Ryanair at LICA




Go Back


Latest METAR
Local Time

LICA 220850Z 07010KT 9999 FEW020 28/19 Q1017
22/09/2018, 11:42:16

Description
Results
Ryanair Logo
Number of Pilots based at LICA
0 Pilots Based here
Number of Ryanair Flights Departed from LICA
0 Flights Departed
Number of Ryanair Flights Arrived at LICA
1 Flights Arrived
Number of Ryanair Schedules Departing from LICA
31 Schedules
Number of Ryanair Schedules Arriving at LICA
31 Schedules
Number of Ryanair Schedules Departing from LICA availible today
11 Schedules Today
Number of Ryanair Schedules Arriving at LICA availible today
11 Schedules Today
Average Landing Rate at LICA
-452 fpm
Ryanair Average Landing Rate at LICA
-671 fpm
Total Fuel Purchased at LICA by Ryanair
0.00 kgs / 0.00 lbs

Pilots Based at LICA


Pilot ID
Pilot Name
Pilot Rank
No. of Flights
No. of Flying Hours
There are no pilots assigned to this hub!   Will you be the first?
Content